Location: Emporia
(38.4040°N, 96.1810°W)
Time: 19:06:05
(UTC-05:00)

Amateur Radio Satellites - All Passes

Search period start: 28 May 2017 18:36
Search period end: 29 May 2017 18:36
Location: Emporia, 38.4040°N, 96.1810°W

Satellite Date Start Highest point End Downlink Frequencies (MHz)
Time Altitude Azimuth
CUBESAT XI-V 28 May 18:36:17 18:40:41 43° 288° (WNW) 18:45:02 437.345
STARS 28 May 18:45:18 18:49:43 82° 105° (ESE) 18:54:07 437.465
XW-2D 28 May 19:05:11 19:08:55 54° 260° (W) 19:12:41 145.860 - 145.880
ISS 28 May 19:09:58 19:11:47 14° 129° (SE) 19:13:36 437.550
XW-2A 28 May 19:11:38 19:13:23 14° 68° (ENE) 19:15:08 145.665 - 145.685
XW-2B 28 May 19:13:18 19:16:57 44° 261° (W) 19:20:39 145.730 - 145.750
CUTE-I 28 May 19:15:58 19:21:12 62° 259° (WSW) 19:26:29 437.470
NUDT-PHONESAT 28 May 19:15:59 19:19:37 52° 261° (W) 19:23:16 437.300
CUTE 1.7 + AOD 2 28 May 19:20:18 19:23:53 26° 70° (ENE) 19:27:28 437.475
XW-2F 28 May 19:24:27 19:27:53 33° 263° (W) 19:31:23 145.980 - 146.000
XW-2C 28 May 19:27:28 19:30:48 29° 263° (W) 19:34:10 145.795 - 145.815
KAITUO 1B 28 May 19:27:59 19:31:29 36° 262° (W) 19:35:01 145.475/437.950
PCSat 28 May 19:35:15 19:40:40 86° 296° (WNW) 19:46:08 145.827
Tancredo 1 28 May 19:50:23 19:53:25 67° 138° (SE) 19:56:29 437.200
HO-68 28 May 19:54:49 20:01:59 80° 73° (ENE) 20:09:12 435.675
ZACube-1 28 May 20:01:48 20:03:29 12° 64° (ENE) 20:05:12 437.345
SEEDS 28 May 20:04:22 20:08:30 53° 75° (ENE) 20:12:39 437.485
CUBEBUG 2 28 May 20:21:59 20:26:04 62° 76° (ENE) 20:30:17 437.445
UWE-3 28 May 20:27:26 20:31:22 41° 72° (ENE) 20:35:25 435.000/436.395/437.385
XW-2A 28 May 20:42:56 20:45:51 27° 263° (W) 20:48:48 145.665 - 145.685
ISS 28 May 20:44:42 20:47:57 54° 325° (NW) 20:51:11 437.550
Oscar 11 28 May 20:50:24 20:54:14 31° 70° (ENE) 20:58:03 .
STRAND 1 28 May 20:54:58 21:00:09 84° 105° (ESE) 21:05:18 437.568
CUTE 1.7 + AOD 2 28 May 20:56:09 20:59:38 24° 265° (W) 21:03:08 437.475
AAUSAT CUBESAT 2 28 May 20:56:48 21:00:58 80° 256° (WSW) 21:05:11 437.432
SO-50 28 May 21:18:39 21:21:06 14° 109° (ESE) 21:23:33 436.795
AO-73 28 May 21:19:29 21:23:41 84° 78° (ENE) 21:28:02 145.935
PCSat 28 May 21:22:02 21:24:52 14° 316° (NW) 21:27:43 145.827
Tancredo 1 28 May 21:27:22 21:29:26 16° 336° (NNW) 21:31:31 437.200
ZACube-1 28 May 21:35:05 21:39:13 56° 260° (W) 21:43:28 437.345
SEEDS 28 May 21:42:59 21:44:28 12° 269° (W) 21:45:59 437.485
M-CUBED/EXP-1 PRIME 28 May 21:44:05 21:46:59 29° 103° (ESE) 21:49:53 437.505
FO-29 28 May 21:44:20 21:45:53 11° 89° (E) 21:47:28 435.910
HO-68 28 May 21:46:02 21:50:23 17° 269° (W) 21:54:47 435.675
EO-88 28 May 21:56:26 21:59:36 28° 72° (ENE) 22:02:48 145.990 - 145.960
UWE-3 28 May 22:05:41 22:08:02 15° 268° (W) 22:10:26 435.000/436.395/437.385
ISS 28 May 22:23:27 22:25:02 13° 342° (NNW) 22:26:36 437.550
Oscar 11 28 May 22:27:04 22:30:22 21° 266° (W) 22:33:41 .
DELFI C3 28 May 22:28:42 22:32:41 71° 259° (W) 22:36:40 145.870
UNISAT 6 28 May 22:32:07 22:35:35 20° 94° (E) 22:39:03 437.425
STRAND 1 28 May 22:36:48 22:38:35 12° 300° (WNW) 22:40:21 437.568
SO-50 28 May 22:56:35 23:01:05 57° 304° (WNW) 23:05:35 436.795
ESTCUBE 1 28 May 23:04:59 23:08:06 19° 66° (ENE) 23:11:13 437.505/2401.250
M-CUBED/EXP-1 PRIME 28 May 23:19:45 23:21:12 12° 298° (WNW) 23:22:38 437.505
FO-29 28 May 23:24:53 23:31:33 74° 103° (ESE) 23:39:01 435.910
PRISM 28 May 23:29:17 23:33:21 74° 285° (WNW) 23:37:23 437.425
EO-88 28 May 23:31:04 23:33:19 16° 266° (W) 23:35:36 145.990 - 145.960
TIGRISAT 28 May 23:35:15 23:39:55 89° 267° (W) 23:44:36 435.000
AIST 2D 28 May 23:47:37 23:49:25 13° 93° (E) 23:51:13 435.315
VELOX 1 28 May 23:50:36 23:52:57 14° 64° (ENE) 23:55:17 145.980
LO-87 29 May 00:04:26 00:07:51 46° 261° (W) 00:11:17 145.935 - 145.965
EO-79 29 May 00:06:59 00:08:48 12° 92° (E) 00:10:37 145.935-145.965
YUBILEINY 29 May 00:07:53 00:12:54 17° 78° (ENE) 00:17:57 435.215
UNISAT 6 29 May 00:08:05 00:12:20 37° 289° (WNW) 00:16:38 437.425
ESTCUBE 1 29 May 00:40:18 00:44:34 40° 262° (W) 00:48:52 437.505/2401.250
Tancredo 1 29 May 00:42:33 00:43:13 10° 16° (NNE) 00:43:53 437.200
NANOSAT C BR1 29 May 00:48:47 00:52:41 35° 98° (E) 00:56:34 145.865
POLYITAN 1 29 May 00:55:37 00:59:46 47° 99° (E) 01:03:54 437.675
DUCHIFAT 1 29 May 00:57:58 01:01:59 39° 99° (E) 01:05:58 145.980
SPROUT 29 May 00:59:10 01:03:23 82° 78° (ENE) 01:07:39 437.525
50 SAT 29 May 00:59:10 01:02:20 35° 73° (ENE) 01:05:31 437.505
QB50P2 29 May 01:04:22 01:08:38 66° 101° (E) 01:12:53 145.880/145.840
BUGSAT 1 29 May 01:07:00 01:09:19 14° 93° (E) 01:11:36 437.445
FO-29 29 May 01:11:28 01:16:03 20° 297° (WNW) 01:20:59 435.910
AIST 2D 29 May 01:19:31 01:22:42 31° 287° (WNW) 01:25:52 435.315
VELOX 1 29 May 01:24:39 01:28:56 51° 259° (W) 01:33:15 145.980
ISS 29 May 01:38:07 01:40:23 17° 23° (NNE) 01:42:37 437.550
UKube-1 29 May 01:38:33 01:42:43 51° 74° (ENE) 01:46:55 .
EO-79 29 May 01:40:41 01:44:49 50° 287° (WNW) 01:48:57 145.935-145.965
RS-15 29 May 01:49:19 02:00:41 51° 109° (ESE) 02:12:22 29.354- 29.394
DX 1 29 May 01:51:31 01:55:51 75° 258° (WSW) 02:00:12 434.975-435.025
YUBILEINY 29 May 01:59:41 02:08:24 88° 276° (W) 02:17:15 435.215
BEESAT 29 May 02:14:30 02:16:11 12° 61° (ENE) 02:17:52 436.000
Tancredo 1 29 May 02:16:40 02:19:37 42° 35° (NE) 02:22:32 437.200
NANOSAT C BR1 29 May 02:25:10 02:28:07 19° 293° (WNW) 02:31:05 145.865
Gurwin Techsat 1B 29 May 02:31:27 02:35:55 27° 96° (E) 02:40:20 435.225
Oscar 19 29 May 02:32:15 02:37:12 45° 99° (E) 02:42:04 437.125/150
POLYITAN 1 29 May 02:32:48 02:35:08 15° 295° (WNW) 02:37:29 437.675
50 SAT 29 May 02:34:21 02:35:20 11° 267° (W) 02:36:19 437.505
DUCHIFAT 1 29 May 02:34:37 02:37:18 17° 294° (WNW) 02:39:59 145.980
BUGSAT 1 29 May 02:40:53 02:44:49 42° 287° (WNW) 02:48:46 437.445
QB50P2 29 May 02:42:54 02:43:50 11° 297° (WNW) 02:44:47 145.880/145.840
MOZHAYETS 4 29 May 03:08:15 03:11:46 22° 67° (ENE) 03:15:19
AO-7 29 May 03:11:02 03:12:47 11° 88° (E) 03:14:31 .
ISS 29 May 03:13:56 03:17:13 78° 221° (SW) 03:20:28 437.550
ITUPSAT 1 29 May 03:17:01 03:21:37 50° 72° (ENE) 03:26:16 437.325
UKube-1 29 May 03:17:11 03:19:01 12° 268° (W) 03:20:51 .
JUGNU 29 May 03:32:07 03:33:47 11° 174° (S) 03:35:29 437.505
O/OREOS (USA 219) 29 May 03:32:35 03:36:37 31° 104° (ESE) 03:40:39 437.305
ITAMSAT 1 29 May 03:41:06 03:44:10 16° 92° (E) 03:47:14 435.822/435.867
BEESAT 29 May 03:48:34 03:53:18 74° 258° (WSW) 03:58:05 436.000
Tancredo 1 29 May 03:53:12 03:55:06 15° 230° (SW) 03:56:59 437.200
YUBILEINY 29 May 04:01:16 04:06:31 17° 297° (WNW) 04:11:49 435.215
RS-15 29 May 04:01:31 04:13:14 51° 312° (NW) 04:25:13 29.354- 29.394
CUBESAT XI-V 29 May 04:02:29 04:05:09 15° 65° (ENE) 04:07:50 437.345
Gurwin Techsat 1B 29 May 04:11:03 04:15:52 36° 291° (WNW) 04:20:39 435.225
Oscar 19 29 May 04:12:23 04:16:09 21° 295° (WNW) 04:19:54 437.125/150
PCSat 29 May 04:24:40 04:30:00 54° 59° (ENE) 04:35:17 145.827
AO-85 29 May 04:34:19 04:38:31 73° 120° (ESE) 04:42:31 145.980
MOZHAYETS 4 29 May 04:44:32 04:48:41 34° 263° (W) 04:52:54
ITUPSAT 1 29 May 04:56:54 04:59:42 15° 268° (W) 05:02:31 437.325
AO-7 29 May 04:58:29 05:06:51 70° 105° (ESE) 05:15:11 .
O/OREOS (USA 219) 29 May 05:12:16 05:16:00 24° 300° (WNW) 05:19:46 437.305
KKS-1 29 May 05:17:00 05:21:25 79° 75° (ENE) 05:25:51 437.445
ITAMSAT 1 29 May 05:18:51 05:23:58 58° 287° (WNW) 05:29:05 435.822/435.867
JUGNU 29 May 05:19:56 05:21:54 12° 184° (S) 05:23:51 437.505
BEESAT 2 29 May 05:25:43 05:29:06 28° 113° (ESE) 05:32:34 435.950
CUBESAT XI-V 29 May 05:37:26 05:42:02 54° 260° (W) 05:46:41 437.345
BEESAT 3 29 May 05:38:51 05:42:47 66° 303° (WNW) 05:46:46 437.485
STARS 29 May 05:40:06 05:44:22 58° 74° (ENE) 05:48:39 437.465
SO-50 29 May 05:50:56 05:52:26 11° 40° (NE) 05:53:55 436.795
SRMSAT 29 May 06:05:15 06:06:58 11° 173° (S) 06:08:40 437.500
PCSat 29 May 06:09:11 06:12:55 19° 255° (WSW) 06:16:38 145.827
AO-85 29 May 06:17:50 06:19:19 12° 316° (NW) 06:20:47 145.980
DOVE 4 29 May 06:20:14 06:23:22 20° 95° (E) 06:26:34 437.250
RS-15 29 May 06:21:06 06:29:48 21° 343° (NNW) 06:38:31 29.354- 29.394
STRAND 1 29 May 06:34:02 06:35:55 12° 60° (ENE) 06:37:48 437.568
XW-2D 29 May 06:40:05 06:42:35 17° 93° (E) 06:45:06 145.860 - 145.880
XW-2B 29 May 06:47:49 06:50:41 20° 94° (E) 06:53:32 145.730 - 145.750
NUDT-PHONESAT 29 May 06:48:51 06:51:09 15° 93° (E) 06:53:25 437.300
AO-7 29 May 06:52:19 06:58:54 27° 303° (WNW) 07:05:30 .
XW-2F 29 May 06:58:00 07:01:14 25° 96° (E) 07:04:27 145.980 - 146.000
KAITUO 1B 29 May 07:00:51 07:03:53 22° 95° (E) 07:06:52 145.475/437.950
XW-2C 29 May 07:01:11 07:04:36 29° 97° (E) 07:07:58 145.795 - 145.815
BEESAT 2 29 May 07:03:34 07:06:50 24° 310° (NW) 07:10:10 435.950
STARS 29 May 07:19:47 07:21:03 11° 269° (W) 07:22:18 437.465
HO-68 29 May 07:26:25 07:30:27 16° 90° (E) 07:34:26 435.675
SO-50 29 May 07:29:04 07:33:35 82° 58° (ENE) 07:38:08 436.795
CUTE-I 29 May 07:34:22 07:39:39 60° 101° (ESE) 07:44:55 437.470
LilacSat-2 29 May 07:42:17 07:46:10 73° 284° (WNW) 07:50:00 437.200
SRMSAT 29 May 07:53:05 07:55:14 12° 184° (S) 07:57:22 437.500
DOVE 4 29 May 07:57:25 08:01:05 30° 289° (WNW) 08:04:52 437.250
NO-84 29 May 07:57:46 08:02:02 51° 131° (SE) 08:06:16 435.350 FM
XW-2A 29 May 08:06:25 08:08:47 17° 95° (E) 08:11:08 145.665 - 145.685
STRAND 1 29 May 08:09:16 08:14:21 81° 257° (WSW) 08:19:30 437.568
XW-2D 29 May 08:13:26 08:16:49 30° 288° (WNW) 08:20:10 145.860 - 145.880
CUBEBUG 2 29 May 08:14:54 08:17:49 16° 92° (E) 08:20:45 437.445
UWE-3 29 May 08:20:52 08:21:46 10° 90° (E) 08:22:39 435.000/436.395/437.385
XW-2B 29 May 08:21:38 08:24:49 25° 289° (WNW) 08:27:58 145.730 - 145.750
NUDT-PHONESAT 29 May 08:21:45 08:25:07 31° 288° (WNW) 08:28:26 437.300
M-CUBED/EXP-1 PRIME 29 May 08:27:54 08:31:44 36° 68° (ENE) 08:35:19 437.505
XW-2F 29 May 08:32:24 08:35:12 20° 291° (WNW) 08:37:59 145.980 - 146.000
KAITUO 1B 29 May 08:34:48 08:37:46 22° 290° (WNW) 08:40:42 145.475/437.950
XW-2C 29 May 08:35:58 08:38:32 17° 292° (WNW) 08:41:06 145.795 - 145.815
RS-15 29 May 08:39:54 08:48:51 22° 20° (NNE) 08:57:33 29.354- 29.394
AAUSAT CUBESAT 2 29 May 08:41:23 08:44:07 17° 93° (E) 08:46:50 437.432
CUTE 1.7 + AOD 2 29 May 08:41:27 08:45:42 63° 101° (E) 08:49:52 437.475
AO-73 29 May 09:09:33 09:12:48 19° 93° (E) 09:16:04 145.935
HO-68 29 May 09:11:40 09:18:55 85° 287° (WNW) 09:26:07 435.675
CUTE-I 29 May 09:15:48 09:19:10 17° 297° (WNW) 09:22:32 437.470
ZACube-1 29 May 09:24:42 09:28:47 31° 96° (E) 09:32:51 437.345
SEEDS 29 May 09:25:01 09:29:12 62° 284° (WNW) 09:33:18 437.485
UNISAT 6 29 May 09:30:40 09:32:59 14° 64° (ENE) 09:35:18 437.425
NO-84 29 May 09:36:07 09:39:50 26° 327° (NNW) 09:43:29 435.350 FM
FO-29 29 May 09:38:11 09:42:05 22° 64° (ENE) 09:46:07 435.910
XW-2A 29 May 09:38:43 09:41:28 23° 289° (WNW) 09:44:12 145.665 - 145.685
CUBEBUG 2 29 May 09:50:10 09:54:36 46° 287° (WNW) 09:59:07 437.445
UWE-3 29 May 09:54:00 09:58:36 70° 284° (WNW) 10:03:15 435.000/436.395/437.385
M-CUBED/EXP-1 PRIME 29 May 10:03:29 10:06:11 17° 260° (W) 10:08:47 437.505
DELFI C3 29 May 10:08:22 10:10:43 15° 93° (E) 10:13:04 145.870
Oscar 11 29 May 10:14:21 10:18:43 79° 102° (ESE) 10:23:03 .
AAUSAT CUBESAT 2 29 May 10:15:56 10:19:39 33° 288° (WNW) 10:23:21 437.432
PRISM 29 May 10:16:34 10:20:38 61° 74° (ENE) 10:24:42 437.425
CUTE 1.7 + AOD 2 29 May 10:19:53 10:20:57 11° 296° (WNW) 10:21:59 437.475
TIGRISAT 29 May 10:32:18 10:36:30 64° 75° (ENE) 10:40:50 435.000
AO-73 29 May 10:44:54 10:49:07 38° 288° (WNW) 10:53:20 145.935
RS-15 29 May 10:53:04 11:05:03 56° 50° (NE) 11:16:23 29.354- 29.394
EO-88 29 May 10:59:40 11:03:14 46° 100° (E) 11:06:46 145.990 - 145.960
ZACube-1 29 May 11:01:13 11:04:52 24° 291° (WNW) 11:08:32 437.345
HO-68 29 May 11:01:34 11:05:35 16° 305° (NW) 11:09:36 435.675
UNISAT 6 29 May 11:05:06 11:09:14 48° 261° (W) 11:13:27 437.425
FO-29 29 May 11:22:06 11:26:55 40° 262° (W) 11:31:55 435.910
LO-87 29 May 11:33:55 11:35:50 14° 93° (E) 11:37:45 145.935 - 145.965
NANOSAT C BR1 29 May 11:39:47 11:42:58 21° 68° (ENE) 11:46:10 145.865
DELFI C3 29 May 11:42:02 11:45:36 33° 288° (WNW) 11:49:07 145.870
POLYITAN 1 29 May 11:46:50 11:50:26 28° 70° (ENE) 11:54:02 437.675
DUCHIFAT 1 29 May 11:48:34 11:51:55 24° 69° (ENE) 11:55:17 145.980
AIST 2D 29 May 11:51:37 11:55:06 66° 76° (ENE) 11:58:38 435.315
QB50P2 29 May 11:55:21 11:59:14 38° 72° (ENE) 12:03:09 145.880/145.840
YUBILEINY 29 May 12:11:58 12:20:19 44° 75° (ENE) 12:28:35 435.215
EO-79 29 May 12:31:01 12:35:11 86° 257° (WSW) 12:39:25 145.935-145.965
ESTCUBE 1 29 May 12:33:56 12:38:16 45° 99° (E) 12:42:33 437.505/2401.250
EO-88 29 May 12:35:34 12:36:28 11° 294° (WNW) 12:37:21 145.990 - 145.960
SPROUT 29 May 12:47:31 12:50:04 15° 93° (E) 12:52:35 437.525
RS-15 29 May 13:06:09 13:17:12 45° 253° (WSW) 13:27:46 29.354- 29.394
LO-87 29 May 13:06:11 13:09:19 30° 288° (WNW) 13:12:29 145.935 - 145.965
AO-85 29 May 13:06:32 13:10:18 37° 54° (NE) 13:14:17 145.980
NANOSAT C BR1 29 May 13:14:53 13:18:29 28° 263° (W) 13:22:09 145.865
VELOX 1 29 May 13:16:10 13:20:04 31° 97° (E) 13:23:58 145.980
POLYITAN 1 29 May 13:22:58 13:26:11 21° 265° (W) 13:29:25 437.675
DUCHIFAT 1 29 May 13:24:01 13:27:28 25° 264° (W) 13:30:56 145.980
BUGSAT 1 29 May 13:28:33 13:32:33 77° 259° (W) 13:36:34 437.445
QB50P2 29 May 13:32:38 13:35:10 16° 267° (W) 13:37:43 145.880/145.840
DX 1 29 May 13:41:50 13:45:04 20° 95° (E) 13:48:17 434.975-435.025
O/OREOS (USA 219) 29 May 13:43:37 13:47:58 46° 65° (ENE) 13:52:16 437.305
BEESAT 2 29 May 13:45:22 13:47:28 14° 45° (NE) 13:49:33 435.950
Oscar 19 29 May 13:47:22 13:52:27 57° 73° (ENE) 13:57:33 437.125/150
Gurwin Techsat 1B 29 May 13:50:56 13:55:46 37° 69° (ENE) 14:00:37 435.225
50 SAT 29 May 13:55:57 13:59:14 44° 100° (E) 14:02:28 437.505
BEESAT 3 29 May 13:57:00 14:00:50 41° 55° (NE) 14:04:36 437.485
AO-7 29 May 14:07:17 14:12:17 18° 51° (NE) 14:17:18 .
YUBILEINY 29 May 14:08:59 14:16:55 39° 274° (W) 14:24:51 435.215
ESTCUBE 1 29 May 14:11:54 14:14:40 16° 295° (WNW) 14:17:25 437.505/2401.250
SPROUT 29 May 14:22:05 14:26:07 41° 288° (WNW) 14:30:08 437.525
NO-84 29 May 14:34:04 14:37:02 20° 29° (NNE) 14:39:49 435.350 FM
AO-85 29 May 14:47:35 14:50:28 18° 248° (WSW) 14:53:27 145.980
VELOX 1 29 May 14:52:59 14:56:19 21° 292° (WNW) 14:59:38 145.980
ITAMSAT 1 29 May 14:57:26 15:01:18 22° 65° (ENE) 15:05:12 435.822/435.867
UKube-1 29 May 15:02:38 15:06:55 69° 285° (WNW) 15:11:10 .
DX 1 29 May 15:17:26 15:21:16 32° 290° (WNW) 15:25:06 434.975-435.025
ITUPSAT 1 29 May 15:20:24 15:23:03 15° 92° (E) 15:25:40 437.325
BEESAT 2 29 May 15:21:37 15:25:38 63° 243° (WSW) 15:29:36 435.950
O/OREOS (USA 219) 29 May 15:24:25 15:26:56 15° 261° (W) 15:29:26 437.305
Oscar 19 29 May 15:29:00 15:32:06 16° 268° (W) 15:35:12 437.125/150
Gurwin Techsat 1B 29 May 15:31:24 15:35:45 25° 265° (W) 15:40:08 435.225
BEESAT 3 29 May 15:35:41 15:38:02 15° 251° (WSW) 15:40:23 437.485
BEESAT 29 May 15:50:23 15:54:38 31° 97° (E) 15:58:52 436.000
AO-7 29 May 15:55:30 16:03:47 81° 71° (ENE) 16:12:07 .
NO-84 29 May 16:11:14 16:14:53 52° 229° (SW) 16:18:12 435.350 FM
ITAMSAT 1 29 May 16:35:33 16:40:26 43° 261° (W) 16:45:23 435.822/435.867
MOZHAYETS 4 29 May 16:40:22 16:44:59 61° 101° (E) 16:49:33
ITUPSAT 1 29 May 16:56:28 17:01:10 54° 287° (WNW) 17:05:51 437.325
KKS-1 29 May 17:10:29 17:13:19 16° 93° (E) 17:16:08 437.445
CUTE-I 29 May 17:19:51 17:20:46 10° 59° (ENE) 17:21:42 437.470
DOVE 4 29 May 17:24:43 17:27:49 19° 68° (ENE) 17:30:49 437.250
BEESAT 29 May 17:28:19 17:32:15 26° 293° (WNW) 17:36:11 436.000
STARS 29 May 17:33:00 17:34:31 12° 91° (E) 17:36:03 437.465
CUBESAT XI-V 29 May 17:35:28 17:39:51 40° 98° (E) 17:44:10 437.345
XW-2F 29 May 17:39:34 17:40:34 11° 65° (ENE) 17:41:34 145.980 - 146.000
XW-2C 29 May 17:42:32 17:44:14 13° 66° (ENE) 17:45:56 145.795 - 145.815
AO-7 29 May 17:51:46 17:57:19 19° 267° (W) 18:02:56 .
HO-68 29 May 17:57:06 17:58:50 11° 51° (NE) 18:00:35 435.675
MOZHAYETS 4 29 May 18:19:24 18:21:35 13° 296° (WNW) 18:23:45
LilacSat-2 29 May 18:22:23 18:25:59 40° 74° (ENE) 18:29:38 437.200
